Location: Newark
(11.2914°S, 14.4718°E)
Time: 12:50:51
(UTC+00:00)

Tiros 1 despin weight - Pass Details

Date: 23 September 2019
Orbit: 594 x 643 km, 48.2° (Epoch: 15 October)

Event Time Altitude Azimuth Distance (km) Brightness Sun altitude
Rises 20:06:32 0° 304° (NW) 2,819 - -46.7°
Reaches altitude 10° 20:08:56 10° 295° (WNW) 1,927 - -47.3°
Maximum altitude 20:13:00 36° 228° (SW) 950 - -48.3°
Drops below altitude 10° 20:17:10 10° 160° (SSE) 1,962 - -49.3°
Sets 20:19:38 0° 151° (SSE) 2,878 - -49.9°
